Starlink 3762

operational
NORAD ID: 52374 Int'l Des: 2022-045 Owner: SPXS Country: US Constellation: starlink
LEOCIRCULAR

关于 Starlink 3762

正在加载描述...

实时位置

正在加载3D地球...

即将过境

高度历史

Altitude vs Time

uPlot chart will show altitude changes over time

两行轨道根数

1 52374U 22045AV 26095.18220937 .00001587 00000-0 11781-3 0 9990
2 52374 53.2175 70.1910 0001207 87.6482 272.4648 15.08824806219927
Epoch: Apr 5, 2026 • Age: 13 hours

当前状态

高度 545.2 km
速度 7.59 km/s
星下点 -18.57°S, 35.47°W
发射日期 Apr 29, 2022
运行时间 3.9 years
类型 internet

技术详情

分类 Payload
质量 297.00 kg
干质量 275.00 kg
总质量 297.00 kg
长度 0.20 m
直径 2.80 m
跨度 9.00 m
形状 Box + pan
制造商 SPXS
平台类型 Starlink
阶段状态 In Orbit
所有者/国家 SPXS/US

大型星座

Loading constellations...